FENGYUN 1C DEB

Satellite information

Favourite Embed

Satellite Type and Status

DEBRISIN ORBIT

Key statistics

Satellite FENGYUN 1C DEB at a glance.

Uptime

9715

Days in orbit

Revolutions

≈ 14.5

Per day

Orbit

SSO

Sun Synchronous Orbit

Inclination

99.2

Latest

Satellite identification and parameters

Extended collection of information and parameters for FENGYUN 1C DEB.

Object identification

Identified? True

Debris? True

Object name: FENGYUN 1C DEB

International designator: 1999-025CBN

Object number (NORAD): 31656

Object ID (CCSDS): 31656

Country: PEOPLES REPUBLIC OF CHINA (PRC)

Current information (Y/N): Y

RCS size: SMALL

Orbital parameters

Period: 99.517 minutes

Inclination: 99.1932 deg

SMA: 7113.614 km

Apoapsis: 751.696 km

Periapsis: 719.263 km

RAAN: 334.653 deg

Eccentricy: 0.0022796

Argument of periapsis: 54.6728 deg

Mean anomaly: 1.3556 deg

Mean motion: 14.46995865 rev/day

Mean motion (dot): 0.00012674 rev/day2

B* drag term: 0.0034814 1/REarth

Two-line elements (TLE)

Creation date: Dec. 12, 2025, 7:26 a.m.

Reference frame: TEME

Reference center: EARTH

Epoch: Dec. 11, 2025, 10:28 p.m. UTC

TLE line 0: 0 FENGYUN 1C DEB

TLE line 1: 1 31656U 99025CBN 25345.93642300 .00012674 00000-0 34814-2 0 9994

TLE line 2: 2 31656 99.1932 334.6530 0022796 54.6728 1.3556 14.46995865964442

Live tracking on map

Real-time ground track for satellite FENGYUN 1C DEB.

In-orbit conjunctions

A list of the most updated potential collisions computed for object FENGYUN 1C DEB.

Target Orbit TCA Probability of collision Miss distance Type
COSMOS 2298 DEB LEO 2025-07-27 08:57:54 0.0001587845 172.0 (m) DEBRIS
NOAA 16 DEB SSO 2024-11-14 11:21:19 0.0001847554 612.0 (m) DEBRIS
COSMOS 2298 DEB LEO 2024-11-13 06:07:56 0.0004001249 811.0 (m) DEBRIS
COSMOS 1125 LEO 2024-08-06 06:59:26 0.0001034716 880.0 (m) PAYLOAD

Associated space launch

Chinese polar orbiting meteorological satellite

FENGYUN 1C DEB was lifted into orbit during the mission ‘Long March 4B | Feng Yun 1C’, on board a Long March 4B space rocket.

The launch took place on May 10, 1999, 1:33 a.m. from Launch Complex 7.

For more information about the launch, click the button.

Launch to space Long March 4B | Feng Yun 1C
Long March 4B | Feng Yun 1C

Agency: N/A

Status: Launch Successful

Launch date: May 10, 1999, 1:33 a.m. UTC

Rocket: Long March 4B

Launch pad: Launch Complex 7

Location: Taiyuan Satellite Launch Center, People's Republic of China

...

Latest news about this satellite

There are no fresh news available about this satellite. Check back as we update our databases every day.


Newsletter sign-up

Weekly statistics, charts and insights to help you stay on top of the space industry.